Satellite-Ground Cal/Val Site Overpasses Predictions

Prediction of Satellite NPP Overpassing Cal/Val Site: Antarctic Dome C

Ground Cal/Val Site Location: Latitude: -75.10, Longitude: 123.35; Satellite-Ground Site NADIR distance within 100 km.

Table of predicted overpasses for the next 14.0 days since TLE Epoch: 11/2/2013
Interval Starting Time Ending Time Minimum Distance Time Minimum Distance (km)
1 11/02/2013 14:56:11 11/02/2013 14:56:39 11/02/2013 14:56:25 25.67
2 11/03/2013 14:37:27 11/03/2013 14:37:44 11/03/2013 14:37:35 81.43
3 11/04/2013 07:39:01 11/04/2013 07:39:28 11/04/2013 07:39:15 32.20
4 11/05/2013 07:20:17 11/05/2013 07:20:35 11/05/2013 07:20:26 78.05
5 11/07/2013 15:02:31 11/07/2013 15:02:54 11/07/2013 15:02:43 62.35
6 11/08/2013 14:43:40 11/08/2013 14:44:06 11/08/2013 14:43:53 46.88
7 11/09/2013 07:45:21 11/09/2013 07:45:43 11/09/2013 07:45:32 66.92
8 11/10/2013 07:26:29 11/10/2013 07:26:55 11/10/2013 07:26:42 41.05
9 11/12/2013 15:08:58 11/12/2013 15:09:00 11/12/2013 15:08:59 99.61
10 11/13/2013 14:49:55 11/13/2013 14:50:24 11/13/2013 14:50
